Погода в Чернигове

Погода в Чернигове : погода сейчас, прогноз погоды и архив. Всё, что Вы хотите узнать о погоде в Чернигове!

Хотите узнать прогноз погоды в Чернигове? Тогда Вам сюда: Погода в Чернигове

Поиск расширенной информации на нашем сайте:

Полезная информация:

Другие новости

Новости СМИ2

Главная страница сайта

Новости сайта

03.07.2017

Напоминаем, что на нашем специализированном сайте Метеоцентр.Азия вы можете получить высокодетализированные автоматические прогнозы погоды по пунктам России, СНГ и мира в авиационном формате (включающие направление и скорость ветра, видимость, явления погоды, количество и форму облачности, нижнюю и верхнюю границу облачности).

Рекомендуем:

Погода в Чернигове - сегодня

Время (UTC), дата Ветер
(°,м/с) 
Видим.   Явления Облачность Т
(°С)
Тd
(°С)
f(%) Тe
(°С)
Pmin
(гПа)
dP
(гПа)
Po
(мм)
O2
(г/м3)
Тmin Tmax R s Состояние
почвы
06 15.09.19 270 (З) 10 км    6/0 верхняя 
[Ci fib]
+10.9 +5.4 69 +11  1025.2  0.4  758  293  +6         
12 15.09.19 270 (З) 20000 м    9/4 1000 м верхняя 
[Cu hum|Cs]
+18.8 +2.5 34 +19  1021.1  -2.4  755  284           
15 15.09.19 270 (З) 20000 м    10/0 верхняя 
[Cs]
+18.4 +3.1 36 +19  1018.1  -3  753  284           
18 15.09.19 260 (З) н/о    6/0 верхняя 
[Ci fib]
+13 +4.5 56 +13  1016.6  -1.7  752  288    +20.6       
21 15.09.19 230 (ЮЗ) н/о    8/0 верхняя 
[Ci fib]
+12 +4.8 61 +12  1014.3  -2.3  750  289           
00 16.09.19 230 (ЮЗ) н/о    8/0 верхняя 
[Ci fib]
+13.4 +3.1 50 +13  1012  -2.2  748  287           
03 16.09.19 270 (З) н/о    8/0 средняя, верхняя 
[Ac trans|Ci fib]
+12.3 +4.4 58 +11  1010.8  -1.3  747  287           
06 16.09.19 270 (З) 10 км  в посл. час ливневой дождь  10/8 1000 м кучево-дожд., средняя 
[Cb cap|Ac und]
+14 +6.8 62 +13  1010.5  -0.2  747  285  +8.6    0.0     
09 16.09.19 240 (ЮЗ) 20000 м    6/3 1000 м средняя, верхняя 
[Cu med, cong|Ac und|Ci fib]
+19.2 +7.7 47 +20  1009.2  -1  746  280           
12 16.09.19 260 (З) 20000 м    9/4 1000 м верхняя 
[Cu med, cong|Cs]
+21.2 +6.7 39 +21  1007.9  -1.2  746  278           
15 16.09.19 270 (З) 20000 м    9/3 1000 м средняя, верхняя 
[Sc|Ac trans|Cs]
+20.3 +4.8 36 +20  1007.3  -0.6  745  279           
18 16.09.19 280 (З) н/о    3/0 верхняя 
[Ci fib]
+13.9 +4.4 53 +14  1008.4  0.7  746  285    +22.6       
21 16.09.19 250 (З) н/о    6/0 верхняя 
[Cc]
+11.5 +5.5 67 +12  1009.1  0.6  746  288           
00 17.09.19 250 (З) н/о    10/0 средняя 
[Ac und]
+10.3 +5 70 +10  1008.3  -0.8  745  289           
03 17.09.19 270 (З) н/о    3/0 средняя 
[Ac trans]
+8.4 +4.8 78 +7  1008.3  -0.1  745  291           
06 17.09.19 270 (З) 10 км    3/0 средняя, верхняя 
[Ac trans|Ci fib]
+11.3 +5 65 +11  1008.3  0.1  745  288  +6.8         
09 17.09.19 280 (З) 20000 м    5/4 1000 м верхняя 
[Cu hum|Ci fib]
+15.3 +4.7 49 +15  1007.8  -0.3  745  284           
12 17.09.19 280 (З) 20000 м    4/0 
[Cu hum]
+16.5 +3.9 43 +16  1006.9  -0.8  745  282           
15 17.09.19 270 (З) 20000 м    3/3 1000 м 
[Cu hum]
+15.4 +2.5 42 +15  1006.3  -0.7  744  283           
18 17.09.19 тихо ()   н/о    4/0 средняя, верхняя 
[Ac trans|Ci fib]
+9.3 +1.3 57 +9  1006.1  -0.5  744  290    +19       
21 17.09.19 тихо ()   н/о    8/0 средняя 
[Ac trans]
+8.9 +4.9 76 +9  1004  -2  742  289           
00 18.09.19 250 (З) н/о    8/8 700 м 
[Sc]
+11.6 +4.1 60 +12  1002.3  -1.6  741  286           
03 18.09.19 210 (ЮЗ) н/о    8/8 480 м кучево-дожд. 
[Cb cap]
+9.7 +4.8 71 +10  1000.3  -2  740  287           
06 18.09.19 260 (З) 10 км  в посл. час ливневой дождь  8/8 300 м кучево-дожд. 
[Cb calv]
+9.1 +7 87 +7  1001.1  0.7  740  287  +8.2    0.9     
09 18.09.19 270 (З) 11  4000 м  слаб. ливневой дождь  8/6 630 м кучево-дожд., верхняя 
[Cb calv|Ci fib]
+11.1 +5 66 +9  1002.6  1.6  741  286           
Время (UTC), дата Ветер
(°,м/с) 
Видим.   Явления Облачность Т
(°С)
Тd
(°С)
f(%) Тe
(°С)
Pmin
(гПа)
dP
(гПа)
Po
(мм)
O2
(г/м3)
Тmin Tmax R s Состояние
почвы

Для получения пояснительной информации подведите курсор к названию столбца.

ПОГОДА в Чернигове - архив

Всё, что Вы хотите узнать о погоде в Чернигове - удобно и подробно!

Выберите нужную дату (начиная с 1 января 2018* года) и нажмите кнопку "Найти".
Будут отображены архивные сводки погоды по пункту Чернигов, начиная с указанной даты.


Отображать данные в формате CSV (для использования в таблицах Excel)


Внимание! Наш архив погоды предназначен исключительно для личного некоммерческого использования в познавательных целях. Если Вам необходимы официальные справки о состоянии погоды (для производственных, юридических, коммерческих и т.п. целей), обращайтесь в органы Росгидромета.

*Примечание: данная дата относится к архиву по метеостанциям СССР (Россия, СНГ, Балтия).
Архив по метеостанциям Зарубежной Европы и Азии (кроме Китая) хранится 10 дней, по другим регионам земного шара (Китай, Африка, Америка, Австралия, Океания) - 1 день.

Чернигов - район местоположения метеостанции


Название, широта, долгота, высота метеостанции:
Чернигов 51.5°ш. 31.2°д. 141 м над ур. моря [Украина]

Дополнительная информация

В oтличие oт бoльшинства пoгoдных сайтoв мы публикуем пoдрoбную метеoинфoрмацию в детальнoм прoфессиoнальнoм фoрмате.

Характеристики температуры и влажнoсти вoздуха измеряются на высoте 2 м в тени вдали oт зданий и деревьев.
Скoрoсть ветра измеряется на высoте 10 м (на урoвне рoста челoвека скoрoсть ветра ниже в 1.5-2 раза). Если метеoстанция нахoдится в гoрoде или в лесу, тo скoрoсть ветра занижена на 2-4 м/с пo сравнению с oткрытым местoм. Скoрoсть ветра над акватoриями крупных рек и oзёр, а также на вершинах хoлмoв на 2-5 м/с выше, чем в oбычных услoвиях.
Атмoсфернoе давление в разных тoчках местнoсти мoжет значительнo oтличаться oт давления на метеoстанции, в зависимoсти oт услoвий рельефа (при пoдъёме на 10 м давление пoнижается примернo на 1 мм рт.ст.).